Wind_Speed
25 18 18 49 32 32 39 32 32 50 50 54 54 53 55 56 56 56 54 51 48 45 43 40 40 39 39 37 35 34 33 32 30 30 27 26 25 25 25 25 27 31 36 42 43
27 21 16 33 34 27 35 31 28 31 42 45 48 45 50 55 56 56 54 52 51 48 44 41 39 39 39 39 40 36 34 36 33 33 33 31 30 29 28 27 28 28 30 30 33
26 26 4 33 21 21 27 29 19 25 34 42 41 37 38 47 56 53 53 53 51 49 45 42 40 38 35 37 38 38 37 33 36 36 37 36 35 35 33 34 34 32 32 32 31
27 21 13 36 28 24 26 25 19 19 24 41 38 34 36 39 47 51 52 51 50 48 45 43 41 40 36 36 35 36 36 35 35 37 39 40 39 38 36 38 36 35 35 36 35
29 19 2 26 23 22 26 19 16 16 22 35 48 44 48 42 41 42 51 50 47 46 45 43 41 39 39 38 36 38 37 37 37 35 36 38 39 38 39 39 40 39 39 39 39
39 15 1 21 24 20 22 19 17 11 13 29 47 48 40 34 35 42 40 47 48 49 46 44 41 40 39 39 39 37 38 38 39 38 36 37 39 40 40 41 43 44 44 45 44
43 8 10 20 19 16 13 19 17 16 13 24 43 46 44 42 34 36 41 41 42 43 44 42 42 40 39 39 39 38 39 39 40 39 39 40 41 42 43 44 45 47 47 47 48
46 24 23 24 25 26 29 28 17 15 10 17 35 36 39 37 35 31 32 36 40 46 42 41 42 40 39 39 39 39 39 41 41 42 42 43 42 44 44 46 46 48 49 50 50
48 36 30 30 29 29 16 8 11 9 10 14 29 35 40 29 41 39 28 26 28 32 40 45 43 40 39 38 39 39 40 40 42 42 44 44 44 43 46 46 47 48 49 51 53
50 35 29 31 22 25 14 12 10 8 8 9 22 42 32 26 32 31 24 24 28 26 26 27 31 35 36 37 40 40 37 38 40 40 42 44 45 45 43 45 46 46 47 49 52
53 46 25 25 20 18 16 15 8 4 1 16 24 35 25 35 34 28 22 22 21 22 22 21 22 24 28 31 31 32 33 35 37 39 39 41 42 38 38 39 42 44 47 50 53
52 51 37 19 17 16 11 15 13 13 12 13 23 25 27 35 26 26 24 19 17 16 14 15 16 18 22 25 27 28 30 31 32 33 34 33 33 33 35 39 42 47 51 55 59
42 44 42 33 14 4 13 18 12 9 3 18 25 24 21 21 23 25 21 17 17 9 12 12 12 14 16 18 20 22 23 25 26 26 28 29 30 33 40 47 49 53 55 57 62
35 32 36 37 34 28 25 19 16 18 14 20 22 24 22 21 18 20 19 15 16 14 12 13 14 15 16 17 18 19 20 20 20 23 26 32 37 37 39 42 44 37 34 37 44
35 32 29 34 31 32 28 26 26 25 29 26 23 23 21 18 16 16 17 16 16 14 14 15 14 13 13 13 12 12 15 19 24 29 32 31 33 29 28 29 26 29 34 32 35
45 28 28 29 28 28 30 26 27 28 27 24 22 20 18 17 17 18 19 19 18 16 13 12 11 9 8 9 12 16 21 26 29 25 24 25 25 18 21 26 31 33 36 37 39
44 41 27 27 26 28 26 24 21 24 25 22 22 21 20 18 19 19 17 16 15 13 12 9 7 7 11 16 19 18 18 20 20 18 17 16 18 19 21 22 24 25 27 30 31
50 45 38 25 25 24 21 21 18 21 23 24 21 21 19 18 18 16 15 14 13 12 10 9 11 12 11 12 12 11 9 10 10 9 10 12 13 14 15 15 17 18 19 25 29
48 50 50 48 32 20 19 15 15 21 20 20 18 15 14 11 10 9 9 9 7 8 9 9 9 9 7 7 7 6 5 5 4 2 3 5 6 10 12 11 10 13 17 29 23
40 42 45 48 47 33 19 16 18 17 16 14 10 9 8 7 6 5 5 7 6 7 7 7 11 10 8 8 7 5 4 4 4 1 1 3 7 12 14 13 15 22 26 30 23
33 34 39 42 44 41 40 43 41 34 27 20 17 14 12 10 9 8 8 10 12 13 12 10 9 9 8 8 8 7 6 5 3 5 5 4 6 9 16 12 25 27 31 30 28
30 30 34 36 36 35 36 36 36 36 34 32 31 29 26 24 22 19 17 15 15 15 14 14 12 11 15 13 12 10 7 6 6 9 9 8 7 7 10 28 26 31 28 31 25
25 26 26 29 30 31 32 33 32 32 32 31 30 31 31 31 30 29 26 24 22 21 20 18 16 17 13 11 11 8 7 8 8 9 11 10 12 14 18 22 25 27 32 32 34
24 23 23 23 23 25 27 28 27 28 28 28 27 27 27 26 26 26 25 24 23 22 21 20 18 16 14 12 11 10 9 8 9 9 9 10 13 17 20 21 22 22 24 26 26
19 20 20 20 19 18 20 21 21 22 22 22 21 21 21 20 20 19 18 16 15 14 13 13 11 10 10 9 8 8 7 6 7 9 10 13 16 19 23 25 24 22 19 22 23
14 15 15 17 18 16 16 16 16 14 13 14 15 15 16 15 14 12 11 9 8 6 5 5 3 3 2 2 2 3 3 5 6 8 11 13 16 17 19 21 24 24 23 20 20
12 11 11 11 12 13 14 14 13 12 12 11 10 10 9 11 11 9 9 7 6 6 7 9 10 10 10 10 9 8 10 10 10 12 14 17 19 21 22 22 20 23 25 23 20
Wind_Direction
336 319 276 219 191 196 214 218 232 226 225 223 221 222 223 222 222 223 224 223 223 225 227 228 230 231 230 228 230 231 233 234 234 234 234 236 235 234 238 239 241 243 246 247 246
353 348 273 226 192 192 206 213 222 216 218 217 216 217 224 221 222 221 222 224 223 223 224 226 227 231 231 231 231 233 236 236 237 238 236 239 238 238 238 239 244 246 247 247 250
352 356 294 194 195 196 195 210 206 209 207 201 201 203 196 222 220 223 221 222 224 224 223 225 226 229 230 232 234 235 237 239 240 240 241 243 244 246 244 248 248 249 249 249 250
1 11 154 168 154 163 176 190 198 207 197 186 180 191 194 200 216 217 220 221 222 224 225 226 227 229 231 233 234 236 238 242 244 242 243 244 246 248 249 251 251 253 252 253 252
4 2 165 181 158 161 169 180 177 183 192 188 179 188 196 207 214 216 216 218 218 222 224 227 230 231 233 235 237 239 239 242 246 247 245 247 249 248 254 254 254 255 256 256 257
3 354 317 158 134 147 153 165 162 170 178 185 188 189 189 191 198 209 211 213 218 220 223 226 228 231 234 236 239 242 245 245 248 249 251 252 254 252 258 260 260 259 259 259 259
12 41 153 143 152 139 153 160 161 144 139 173 176 178 183 183 190 195 200 196 201 212 218 222 228 231 234 237 241 243 247 250 251 253 254 255 257 257 260 260 262 261 261 260 260
23 78 131 130 147 136 127 129 112 125 134 158 186 184 189 191 198 187 199 207 212 218 217 221 226 230 233 238 241 245 248 251 251 253 253 254 254 256 262 262 263 264 265 265 264
40 83 101 127 150 154 135 117 99 88 126 154 177 179 178 181 188 186 186 199 204 212 222 224 226 229 233 238 243 246 251 253 253 254 256 258 258 261 263 264 266 267 268 268 267
45 63 85 95 132 153 136 146 121 134 163 152 165 184 182 186 189 198 199 200 206 211 219 223 227 232 237 242 245 249 253 255 258 255 260 262 263 265 268 269 269 269 269 270 270
53 57 102 83 101 125 114 138 171 146 123 135 159 179 173 170 181 178 184 173 183 193 204 210 216 222 228 233 238 243 247 253 258 262 263 265 267 270 271 272 273 273 272 270 269
50 58 66 104 116 129 142 140 130 106 55 105 149 168 179 177 170 177 178 185 185 184 192 204 214 221 227 231 236 242 248 254 259 263 265 265 269 271 273 275 276 276 277 275 273
50 57 59 71 116 135 151 144 137 138 86 117 126 144 157 177 185 184 191 195 198 199 203 205 211 219 228 237 244 250 255 258 260 263 266 267 271 277 280 281 281 279 279 279 278
47 56 64 59 64 79 98 133 147 127 121 122 127 133 149 159 168 177 199 198 200 199 198 204 209 215 223 233 241 247 252 255 261 267 275 279 278 283 278 278 279 287 285 283 280
42 52 58 62 68 71 82 91 104 117 123 118 123 124 130 143 161 170 174 182 179 184 187 197 205 212 219 226 232 245 261 269 274 278 280 273 281 280 271 280 282 282 286 290 294
39 48 59 66 71 72 74 85 102 111 111 121 127 128 129 133 142 156 160 164 171 179 184 178 178 186 209 238 259 266 272 277 275 270 273 270 273 261 272 279 285 289 283 291 295
44 46 56 66 74 72 79 84 96 98 106 111 111 115 119 127 131 136 143 148 153 159 163 166 200 243 263 263 266 268 262 263 263 260 267 268 281 291 291 285 286 280 290 294 298
51 52 52 57 66 71 74 86 92 91 97 105 111 116 120 124 129 136 143 150 155 169 194 218 244 258 253 245 249 249 243 248 258 263 280 293 301 305 303 311 308 298 305 323 323
50 53 58 64 64 69 74 83 86 90 96 98 104 111 107 113 125 138 151 171 194 230 241 237 228 233 225 210 205 224 232 236 250 294 335 337 352 359 338 333 330 325 323 357 0
51 49 54 61 65 56 62 85 90 90 90 91 89 104 97 108 118 134 155 172 178 197 204 176 158 151 164 179 182 190 162 139 92 80 333 20 5 13 6 11 18 20 9 10 9
47 48 50 57 64 68 71 76 82 86 89 90 95 97 100 103 111 119 124 120 122 126 134 143 152 164 160 145 130 120 115 102 70 40 13 6 360 7 31 15 26 15 6 10 13
41 42 48 55 63 65 67 73 79 85 86 89 90 92 95 98 101 106 112 112 111 109 109 107 108 106 114 106 93 90 72 55 52 37 36 25 14 8 15 31 35 24 27 21 21
39 39 43 49 57 61 65 69 73 77 83 86 87 86 87 89 92 93 92 91 91 93 91 94 94 98 89 87 90 69 62 63 51 42 41 35 37 29 36 37 37 34 33 25 32
27 38 39 42 50 57 58 63 68 73 80 83 85 85 86 87 86 86 89 91 91 88 85 83 85 85 84 79 69 68 71 71 60 55 39 27 18 14 13 17 25 24 26 23 27
23 28 34 34 37 41 53 56 60 64 69 74 81 81 76 74 76 77 73 73 76 72 72 73 73 74 76 68 56 55 51 39 28 15 7 1 360 356 354 355 359 2 16 19 14
7 17 29 31 32 31 34 41 48 55 58 62 62 55 56 57 53 48 45 40 35 26 29 11 13 23 22 334 313 320 323 324 326 326 335 332 333 335 335 338 341 343 345 357 4
331 354 10 21 28 32 32 34 37 41 39 36 27 21 11 2 6 18 16 5 343 319 319 319 309 299 287 276 275 277 284 275 283 296 307 311 314 317 319 321 325 326 325 328 336
Height
5549 5543 5538 5541 5557 5568 5576 5585 5591 5604 5615 5628 5642 5654 5665 5676 5685 5695 5704 5714 5721 5728 5735 5740 5746 5752 5757 5762 5766 5770 5775 5777 5780 5782 5787 5788 5790 5793 5795 5797 5798 5800 5802 5804 5807
5547 5540 5534 5537 5554 5564 5569 5578 5587 5596 5607 5619 5633 5646 5657 5665 5676 5686 5697 5706 5714 5721 5729 5735 5741 5747 5752 5757 5761 5765 5769 5771 5775 5778 5781 5783 5786 5789 5792 5794 5794 5796 5798 5800 5801
5546 5537 5532 5540 5552 5560 5566 5576 5583 5592 5601 5615 5629 5641 5652 5655 5666 5679 5690 5699 5707 5715 5722 5730 5735 5742 5747 5751 5756 5760 5763 5768 5770 5774 5777 5778 5781 5783 5787 5788 5790 5793 5794 5795 5796
5544 5540 5536 5544 5553 5559 5564 5574 5583 5590 5599 5612 5627 5636 5646 5651 5661 5671 5682 5691 5700 5709 5717 5724 5730 5736 5741 5746 5750 5754 5758 5761 5765 5768 5771 5773 5776 5778 5781 5781 5785 5786 5788 5789 5791
5545 5541 5541 5547 5555 5561 5565 5575 5583 5589 5597 5607 5621 5627 5636 5649 5657 5665 5674 5683 5694 5703 5710 5717 5724 5730 5735 5741 5744 5748 5752 5755 5759 5762 5765 5767 5769 5772 5773 5775 5777 5780 5782 5783 5784
5545 5538 5540 5546 5557 5563 5570 5578 5584 5590 5595 5603 5614 5624 5635 5646 5652 5660 5667 5677 5687 5696 5704 5711 5718 5724 5730 5734 5739 5743 5746 5749 5753 5755 5758 5761 5763 5766 5765 5768 5769 5771 5773 5775 5776
5540 5531 5540 5549 5559 5567 5572 5579 5587 5593 5597 5602 5613 5622 5632 5641 5648 5657 5664 5672 5681 5690 5698 5705 5712 5719 5724 5729 5733 5736 5740 5743 5746 5748 5751 5754 5757 5759 5758 5760 5761 5763 5764 5765 5766
5542 5535 5547 5556 5565 5573 5578 5585 5592 5596 5601 5605 5611 5621 5631 5637 5645 5653 5660 5669 5677 5685 5693 5700 5707 5713 5718 5723 5726 5730 5733 5736 5740 5742 5745 5747 5751 5750 5750 5750 5752 5754 5754 5755 5756
5562 5555 5561 5567 5573 5579 5585 5589 5596 5600 5604 5607 5611 5619 5627 5635 5644 5652 5659 5668 5675 5683 5689 5696 5702 5708 5713 5717 5721 5724 5727 5730 5732 5734 5736 5738 5742 5741 5741 5741 5744 5744 5744 5744 5744
5579 5574 5575 5577 5582 5589 5594 5599 5603 5606 5608 5609 5613 5622 5629 5637 5643 5651 5659 5666 5673 5680 5687 5692 5697 5702 5707 5712 5716 5719 5722 5724 5725 5729 5729 5731 5732 5732 5731 5732 5734 5734 5735 5733 5732
5595 5590 5591 5594 5593 5598 5601 5605 5610 5612 5613 5613 5616 5624 5632 5638 5644 5652 5659 5665 5672 5679 5684 5688 5694 5697 5702 5706 5710 5713 5716 5717 5719 5721 5723 5723 5724 5724 5723 5724 5724 5724 5724 5722 5721
5609 5604 5602 5602 5603 5605 5608 5611 5614 5617 5619 5618 5623 5628 5635 5640 5647 5653 5660 5667 5671 5676 5681 5686 5690 5694 5698 5702 5705 5707 5709 5711 5714 5715 5716 5716 5717 5716 5714 5713 5714 5713 5712 5710 5708
5625 5619 5615 5613 5611 5610 5614 5617 5619 5620 5624 5625 5629 5633 5638 5644 5649 5656 5662 5668 5673 5676 5680 5684 5688 5691 5695 5698 5701 5703 5705 5707 5709 5710 5708 5710 5710 5709 5706 5703 5702 5700 5697 5695 5691
5637 5632 5628 5624 5622 5618 5618 5619 5622 5625 5629 5632 5634 5638 5643 5648 5653 5658 5663 5669 5673 5677 5680 5683 5686 5690 5692 5696 5698 5701 5702 5704 5705 5705 5705 5703 5703 5702 5696 5692 5690 5688 5685 5681 5675
5647 5641 5636 5633 5632 5630 5629 5628 5628 5631 5634 5639 5642 5645 5648 5653 5657 5660 5664 5669 5673 5676 5681 5683 5686 5689 5692 5694 5697 5699 5700 5700 5699 5699 5699 5694 5692 5693 5688 5684 5682 5679 5676 5671 5665
5655 5649 5646 5643 5641 5638 5638 5639 5639 5642 5640 5644 5647 5650 5653 5655 5659 5662 5666 5671 5674 5678 5680 5683 5686 5689 5691 5693 5694 5695 5695 5694 5693 5691 5691 5688 5686 5687 5682 5680 5677 5673 5668 5664 5658
5666 5660 5654 5650 5649 5647 5646 5648 5650 5648 5650 5653 5654 5656 5658 5660 5663 5666 5670 5673 5676 5680 5682 5684 5686 5688 5689 5690 5690 5690 5689 5688 5688 5687 5685 5683 5682 5681 5677 5674 5672 5669 5664 5658 5652
5679 5671 5665 5660 5657 5654 5655 5655 5656 5656 5656 5657 5659 5661 5663 5665 5668 5670 5672 5675 5677 5679 5682 5683 5685 5685 5686 5686 5687 5687 5686 5686 5684 5683 5682 5680 5678 5676 5673 5670 5666 5663 5658 5652 5643
5693 5687 5679 5670 5665 5663 5662 5661 5662 5661 5663 5664 5665 5667 5668 5670 5672 5673 5675 5677 5678 5679 5681 5681 5682 5683 5683 5685 5686 5685 5684 5684 5682 5681 5679 5678 5677 5673 5670 5667 5663 5659 5653 5646 5637
5705 5701 5693 5683 5676 5670 5669 5670 5668 5667 5667 5668 5670 5670 5671 5672 5673 5674 5675 5676 5678 5679 5680 5681 5683 5683 5684 5684 5685 5684 5684 5682 5681 5680 5679 5678 5675 5672 5669 5666 5660 5653 5649 5642 5636
5715 5711 5704 5696 5686 5686 5687 5681 5676 5674 5673 5673 5673 5675 5675 5676 5677 5678 5679 5680 5681 5682 5683 5683 5684 5685 5685 5685 5685 5684 5683 5682 5681 5680 5679 5677 5676 5672 5669 5665 5657 5651 5646 5641 5636
5723 5719 5714 5708 5702 5701 5698 5692 5688 5684 5684 5684 5683 5682 5682 5683 5684 5685 5685 5685 5685 5685 5686 5687 5686 5685 5686 5686 5685 5684 5684 5683 5682 5681 5679 5677 5677 5673 5670 5665 5659 5655 5650 5643 5638
5729 5726 5722 5718 5715 5711 5707 5704 5700 5696 5693 5692 5692 5691 5690 5689 5689 5689 5689 5689 5689 5689 5690 5689 5689 5688 5688 5688 5686 5685 5683 5682 5681 5680 5679 5678 5677 5673 5670 5665 5660 5659 5656 5650 5644
5736 5731 5728 5725 5722 5719 5716 5711 5709 5706 5703 5700 5700 5699 5698 5698 5697 5697 5696 5695 5695 5694 5694 5693 5692 5691 5690 5689 5688 5686 5684 5683 5682 5681 5680 5678 5676 5673 5671 5667 5664 5662 5658 5652 5648
5742 5737 5732 5729 5727 5724 5722 5720 5716 5713 5712 5710 5707 5704 5704 5703 5702 5702 5702 5700 5699 5697 5696 5695 5695 5693 5692 5690 5689 5688 5686 5685 5684 5682 5680 5679 5676 5674 5671 5667 5664 5660 5658 5655 5651
5745 5742 5736 5733 5730 5727 5725 5723 5721 5719 5717 5714 5713 5712 5709 5707 5706 5705 5704 5703 5701 5700 5698 5697 5695 5693 5692 5691 5689 5688 5686 5685 5683 5681 5680 5678 5676 5673 5670 5668 5664 5661 5658 5656 5654
5746 5743 5740 5736 5733 5731 5728 5725 5723 5722 5720 5718 5716 5714 5712 5711 5708 5706 5704 5702 5701 5699 5697 5696 5694 5693 5691 5689 5688 5688 5686 5684 5683 5681 5679 5676 5674 5671 5669 5666 5664 5661 5657 5654 5652